Weather History for KGUY - June, 2015

Change the Weather History Date:

Monday, June 29, 2015

  Actual Average Record
Temperature  
Mean Temperature 78 °F 78 °F  
Max Temperature 91 °F 92 °F 107 °F (2011)
Min Temperature 65 °F 64 °F 50 °F (2007)
Degree Days  
Heating Degree Days 0 0  
Month to date heating degree days 0 6  
Since 1 June heating degree days 0 6  
Since 1 July heating degree days 3998 4455  
Cooling Degree Days 13 13  
Month to date cooling degree days 368 268  
Year to date cooling degree days 432 376  
Since 1 June cooling degree days 368 268  
Growing Degree Days 27 (Base 50)    
Moisture  
Dew Point 57 °F    
Average Humidity 53    
Maximum Humidity 78    
Minimum Humidity 27    
Precipitation  
Precipitation T in 0.04 in 0.31 in (2003)
Month to date precipitation 1.69 2.89  
Year to date precipitation 12.64 9.14  
Snow  
Snow 0.00 in - - ()
Month to date snowfall 0.0  
Since 1 June snowfall 0.0  
Since 1 July snowfall 23.3  
Snow Depth 0.00 in    
Sea Level Pressure  
Sea Level Pressure 29.91 in    
Wind  
Wind Speed 6 mph (ENE)    
Max Wind Speed 13 mph    
Max Gust Speed 16 mph    
Visibility 10 miles    
Events      
T = Trace of Precipitation, MM = Missing Value Source: NWS Daily Summary

Daily Weather History Graph

Daily Weather History Graph

Search for Another Location

Airport or City:

Trip Planner

Search our weather history database for the weather conditions in past years. The results will help you decide how hot, cold, wet, or windy it might be!

Date:

Astronomy

Jun. 29, 2015 Rise Set
Actual Time 6:30 AM CDT 9:08 PM CDT
Civil Twilight 5:59 AM CDT 9:39 PM CDT
Nautical Twilight 5:21 AM CDT 10:17 PM CDT
Astronomical Twilight 4:38 AM CDT 10:59 PM CDT
Moon 6:51 PM CDT (6/29) 4:33 AM CDT (6/29)
Length of Visible Light 15h 39m
Length of Day
14h 38m
Waxing Gibbous, 93% of the Moon is Illuminated
Jun 29
Waxing Gibbous
Jul 1
Full
Jul 8
Last Quarter
Jul 15
New
Jul 23
First Quarter

Hourly Weather History & Observations

Time (CDT) Temp. Heat Index Dew Point Humidity Pressure Visibility Wind Dir Wind Speed Gust Speed Precip Events Conditions
12:53 AM 75.9 °F - 59.0 °F 56% 29.87 in 10.0 mi Calm Calm - N/A   Clear
1:53 AM 75.0 °F - 59.0 °F 57% 29.87 in 10.0 mi Calm Calm - N/A   Clear
2:53 AM 70.0 °F - 60.1 °F 71% 29.86 in 10.0 mi SSE 3.5 mph - N/A   Clear
3:53 AM 68.0 °F - 60.1 °F 76% 29.88 in 10.0 mi WNW 8.1 mph - N/A   Clear
4:53 AM 66.9 °F - 59.0 °F 76% 29.88 in 10.0 mi NW 6.9 mph - N/A   Clear
5:53 AM 66.0 °F - 55.0 °F 68% 29.88 in 10.0 mi NNW 6.9 mph - N/A   Clear
6:53 AM 64.9 °F - 54.0 °F 68% 29.89 in 10.0 mi NW 9.2 mph - N/A   Clear
7:53 AM 68.0 °F - 54.0 °F 61% 29.91 in 10.0 mi North 5.8 mph - N/A   Clear
8:53 AM 75.9 °F - 57.9 °F 54% 29.92 in 10.0 mi Variable 3.5 mph - N/A   Clear
9:53 AM 78.1 °F - 60.1 °F 54% 29.94 in 10.0 mi East 5.8 mph - N/A   Clear
10:53 AM 84.0 °F 84.4 °F 61.0 °F 46% 29.93 in 10.0 mi East 5.8 mph - N/A   Clear
11:53 AM 86.0 °F 86.1 °F 61.0 °F 43% 29.94 in 10.0 mi Variable 3.5 mph - N/A   Clear
12:53 PM 87.1 °F 87.0 °F 61.0 °F 41% 29.95 in 10.0 mi NE 9.2 mph - N/A   Clear
1:53 PM 87.1 °F 87.0 °F 61.0 °F 41% 29.95 in 10.0 mi ENE 9.2 mph - N/A   Clear
2:53 PM 90.0 °F 89.7 °F 60.1 °F 37% 29.95 in 10.0 mi Variable 5.8 mph - N/A   Clear
3:53 PM 88.0 °F 86.5 °F 55.9 °F 34% 29.94 in 10.0 mi NE 8.1 mph - 0.00 in   Scattered Clouds
4:53 PM 90.0 °F - 52.0 °F 27% 29.92 in 10.0 mi NNE 6.9 mph - N/A   Clear
5:53 PM 89.1 °F - 52.0 °F 28% 29.91 in 10.0 mi East 6.9 mph - N/A   Clear
6:53 PM 88.0 °F 86.5 °F 55.9 °F 34% 29.91 in 10.0 mi ENE 8.1 mph - N/A   Clear
7:53 PM 87.1 °F 85.3 °F 55.0 °F 33% 29.91 in 10.0 mi ENE 8.1 mph - N/A   Clear
8:53 PM 82.0 °F 81.3 °F 54.0 °F 38% 29.91 in 10.0 mi ESE 3.5 mph - N/A   Clear
9:53 PM 78.1 °F - 55.0 °F 45% 29.93 in 10.0 mi SE 4.6 mph - N/A   Clear
10:53 PM 75.0 °F - 53.1 °F 46% 29.94 in 10.0 mi SSE 3.5 mph - N/A   Clear
11:53 PM 71.1 °F - 53.1 °F 53% 29.95 in 10.0 mi South 4.6 mph - N/A   Clear